Eastsound, WA
on Thursday, November 22, 2012

Thursday
Previous Day Next Day
Daily Summary
 ActualAverage (KBLI)Record (KBLI)
Temperature
Mean Temperature °F 42°F  
Max Temperature 53°F 48°F 60°F (1995)
Min Temperature 39°F 35°F 11°F (1985)
Degree Days
Heating Degree Days 19 23  
Month to date heating degree days 459  
Cooling Degree Days 0 0  
Month to date cooling degree days 0  
Year to date cooling degree days 42  
Moisture
Dew Point 37°F   
Average Humidity 74    
Maximum Humidity 100    
Minimum Humidity 44    
Precipitation
Precipitation 0.00 in 0.19 in 0.92 in (2011)
Month to date precipitation 4.32  
Year to date precipitation 30.13  
Wind
Wind Speed 5 mph   
Max Wind Speed 16 mph   
Max Gust Speed 36 mph   
Visibility 10 miles   
Events Rain   

Key: T is trace of precipitation, MM is missing value
Source: NWS Daily Summary
Time(PST)TemperatureDew PointHumidity Pressure Visibility Wind DirectionWind SpeedGust SpeedPrecipitationEvents Conditions
12:15 AM 39.2°F 37.4°F 93% 30.26 in 10.0 miles South 3.5 mph - N/A   Clear
12:35 AM 39.2°F 37.4°F 93% 30.26 in 10.0 miles South 4.6 mph - N/A   Clear
12:55 AM 39.2°F 37.4°F 93% 30.27 in 10.0 miles South 4.6 mph - N/A   Clear
1:15 AM 39.2°F 37.4°F 93% 30.27 in 10.0 miles North - - N/A   Clear
1:35 AM 39.2°F 39.2°F 100% 30.27 in 10.0 miles South 6.9 mph - N/A   Clear
1:55 AM 41.0°F 39.2°F 93% 30.28 in 10.0 miles SSW 6.9 mph - N/A   Clear
2:15 AM 41.0°F 39.2°F 93% 30.28 in 10.0 miles South 4.6 mph - N/A   Clear
2:55 AM 41.0°F 39.2°F 93% 30.29 in 10.0 miles South 5.8 mph - N/A   Clear
3:15 AM 41.0°F 39.2°F 93% 30.29 in 10.0 miles South 6.9 mph - N/A   Clear
3:35 AM 41.0°F 39.2°F 93% 30.30 in 10.0 miles South 4.6 mph - N/A   Clear
3:55 AM 41.0°F 39.2°F 93% 30.30 in 10.0 miles South 5.8 mph - N/A   Clear
4:15 AM 41.0°F 39.2°F 93% 30.30 in 10.0 miles South 9.2 mph - N/A   Clear
4:35 AM 41.0°F 39.2°F 93% 30.31 in 10.0 miles South 9.2 mph - N/A   Clear
4:55 AM 41.0°F 39.2°F 93% 30.31 in 10.0 miles South 6.9 mph - N/A   Clear
5:15 AM 41.0°F 37.4°F 87% 30.32 in 10.0 miles South 5.8 mph - N/A   Clear
5:35 AM 42.8°F 37.4°F 81% 30.32 in 10.0 miles Calm Calm - N/A   Partly Cloudy
5:55 AM 42.8°F 37.4°F 81% 30.32 in 10.0 miles South 5.8 mph - N/A   Partly Cloudy
6:15 AM 42.8°F 37.4°F 81% 30.32 in 10.0 miles South 8.1 mph - N/A   Clear
6:55 AM 42.8°F 37.4°F 81% 30.32 in 10.0 miles South 10.4 mph 16.1 mph N/A   Clear
7:15 AM 42.8°F 37.4°F 81% 30.33 in 10.0 miles South 6.9 mph - N/A   Scattered Clouds
8:15 AM 44.6°F 37.4°F 76% 30.33 in 10.0 miles SSW 3.5 mph - N/A   Partly Cloudy
8:35 AM 44.6°F 37.4°F 76% 30.32 in 10.0 miles South 5.8 mph - N/A   Partly Cloudy
8:55 AM 46.4°F 35.6°F 66% 30.32 in 10.0 miles SE 8.1 mph - N/A   Clear
9:15 AM 46.4°F 35.6°F 66% 30.32 in 10.0 miles ESE 6.9 mph - N/A   Scattered Clouds
9:35 AM 46.4°F 35.6°F 66% 30.32 in 10.0 miles ESE 5.8 mph - N/A   Partly Cloudy
9:55 AM 46.4°F 35.6°F 66% 30.31 in 10.0 miles North 3.5 mph - N/A   Scattered Clouds
10:15 AM 46.4°F 35.6°F 66% 30.31 in 10.0 miles SE 8.1 mph - N/A   Scattered Clouds
10:35 AM 48.2°F 35.6°F 62% 30.31 in 10.0 miles SSE 3.5 mph - N/A   Partly Cloudy
10:55 AM 48.2°F 33.8°F 58% 30.31 in 10.0 miles SSE 9.2 mph - N/A   Clear
11:15 AM 48.2°F 33.8°F 58% 30.31 in 10.0 miles SSE 4.6 mph - N/A   Clear
11:35 AM 48.2°F 35.6°F 62% 30.30 in 10.0 miles Calm Calm - N/A   Clear
11:55 AM 46.4°F 35.6°F 66% 30.30 in 10.0 miles SSE 4.6 mph - N/A   Clear
12:15 PM 46.4°F 35.6°F 66% 30.30 in 10.0 miles Calm Calm - N/A   Clear
12:35 PM 46.4°F 35.6°F 66% 30.30 in 10.0 miles NE 4.6 mph - N/A   Clear
12:55 PM 46.4°F 37.4°F 71% 30.30 in 10.0 miles Calm Calm - N/A   Clear
1:15 PM 44.6°F 39.2°F 81% 30.30 in 10.0 miles Calm Calm - N/A   Scattered Clouds
1:35 PM 44.6°F 37.4°F 76% 30.30 in 10.0 miles NE 5.8 mph - N/A   Scattered Clouds
1:55 PM 44.6°F 37.4°F 76% 30.29 in 10.0 miles East 4.6 mph - N/A   Partly Cloudy
2:15 PM 44.6°F 37.4°F 76% 30.27 in 10.0 miles NNW 3.5 mph - N/A   Clear
2:35 PM 44.6°F 39.2°F 81% 30.29 in 10.0 miles Calm Calm - N/A   Clear
2:55 PM 44.6°F 39.2°F 81% 30.28 in 10.0 miles NNE 5.8 mph - N/A   Partly Cloudy
3:15 PM 44.6°F 39.2°F 81% 30.29 in 10.0 miles NE 3.5 mph - N/A   Partly Cloudy
3:35 PM 44.6°F 39.2°F 81% 30.28 in 10.0 miles NE 4.6 mph - N/A   Scattered Clouds
3:55 PM 44.6°F 37.4°F 76% 30.27 in 10.0 miles Calm Calm - N/A   Overcast
4:15 PM 44.6°F 37.4°F 76% 30.26 in 10.0 miles ENE 4.6 mph - N/A   Partly Cloudy
4:35 PM 44.6°F 37.4°F 76% 30.25 in 10.0 miles East 8.1 mph - N/A   Clear
4:55 PM 44.6°F 39.2°F 81% 30.24 in 10.0 miles ENE 8.1 mph - N/A   Clear
5:55 PM 44.6°F 37.4°F 76% 30.19 in 10.0 miles East 4.6 mph - N/A   Clear
6:15 PM 46.4°F 35.6°F 66% 30.20 in 10.0 miles East 3.5 mph - N/A   Partly Cloudy
6:35 PM 48.2°F 33.8°F 58% 30.19 in 10.0 miles ENE 8.1 mph - N/A   Mostly Cloudy
6:55 PM 46.4°F 39.2°F 76% 30.18 in 10.0 miles East 6.9 mph - N/A   Mostly Cloudy
7:15 PM 46.4°F 37.4°F 71% 30.17 in 10.0 miles NE 5.8 mph - N/A   Overcast
7:35 PM 50.0°F 32.0°F 50% 30.16 in 10.0 miles ENE 6.9 mph - N/A   Overcast
7:55 PM 46.4°F 37.4°F 71% 30.16 in 10.0 miles East 5.8 mph - N/A   Mostly Cloudy
8:15 PM 48.2°F 33.8°F 58% 30.15 in 10.0 miles ENE 9.2 mph - N/A   Overcast
8:35 PM 46.4°F 35.6°F 66% 30.14 in 10.0 miles NE 8.1 mph - N/A   Overcast
8:55 PM 50.0°F 30.2°F 47% 30.13 in 10.0 miles East 5.8 mph 16.1 mph N/A   Overcast
9:15 PM 48.2°F 35.6°F 62% 30.13 in 10.0 miles NE 6.9 mph - N/A Rain Light Rain
9:35 PM 46.4°F 37.4°F 71% 30.14 in 10.0 miles NE 6.9 mph - N/A Rain Light Rain
9:55 PM 46.4°F 37.4°F 71% 30.13 in 10.0 miles Calm Calm - N/A Rain Light Rain
10:15 PM 53.6°F 32.0°F 44% 30.13 in 10.0 miles South 11.5 mph 27.6 mph N/A Rain Light Rain
10:35 PM 51.8°F 32.0°F 47% 30.11 in 10.0 miles SSE 8.1 mph 25.3 mph N/A   Partly Cloudy
10:55 PM 51.8°F 32.0°F 47% 30.11 in 10.0 miles SE 11.5 mph 21.9 mph N/A   Partly Cloudy
11:15 PM 50.0°F 33.8°F 54% 30.10 in 10.0 miles South 12.7 mph 20.7 mph N/A Rain Light Rain
11:55 PM 50.0°F 33.8°F 54% 30.07 in 10.0 miles South 16.1 mph 35.7 mph N/A   Overcast
Moon Phase
Nov. 22 Nov. 28 Dec. 06 Dec. 13 Dec. 20
Sunrise:07:31 AM (PST) Moon Rise:01:34 PM (PST)
Sunset:04:23 PM (PST) Moon Set:01:32 AM (PST)

Copyright © 2014 The Weather Underground, Inc.